User: anonymous   Login
Location: SAPM � Hemmingford
(45.0500°N, 73.5833°W)
Time: 00:46:02
(UTC-05:00)
Language:

Cosmos 1603 - Orbit

View from above orbital plane
View from above orbital plane
View from above satellite
View from above satellite

Ground track
Ground track

The orbit data is extracted from the following two-line orbital elements,

1 15333U 84106A   16039.59087940 -.00000259  00000-0 -11115-3 0  9995
2 15333  71.0263  48.0164 0022094 243.7359 116.1492 14.14026782618340
Epoch (UTC): 08 February 2016 14:10:51
Eccentricity: 0.0022094
inclination: 71.0263°
perigee height: 829 km
apogee height: 861 km
right ascension of ascending node: 48.0164°
argument of perigee: 243.7359°
revolutions per day: 14.14026782
mean anomaly at epoch: 116.1492°
orbit number at epoch: 61834

The dashed part of the orbit path shows where the satellite is in the earth's shadow,  

DLR